SPACECUBE (42717 NORAD) Tracking and Keplerian Element Data

This shows tracking and keplerian element data for the satellite.

Feedback or suggestion? Click here.




ElementValue
Catalog42717
NameSPACECUBE
Epoch Orbit6645
Epoch Day203.19933945
Epoch Year2018
RAAN176.5047
Inclination51.6313
Eccentricity0.0003822
Argument of Perigee36.0213
Mean Anonmoly324.1043
Mean Motion15.72598187
Decay Rate0.00030884
L11 42717U 98067LY 18203.19933945 .00030884 00000-0 22901-3 0 9998
L22 42717 51.6313 176.5047 0003822 36.0213 324.1043 15.72598187 66453

Live tracking and technical data element details for SPACECUBE (NORAD 42717). SPACECUBE can be tracked NOW for your location showing map with azimuth and elevation plus other details from your city location.

Track the satellite on the map from your city or location and see movement details for azimuth, elevation, latitude, longitude, range, height, and movement on the map or in text.







IsCatalogInMostPopularTable: catalog: 42717, numindb: 98
Update: records affected: 1



GetName: 42717 SPACECUBE

Hit Count: updated at: Mon, 23 Jul 2018 07:34:12 GMT